TimePDT,TemperatureF,Dew PointF,Humidity,Sea Level PressureIn,VisibilityMPH,Wind Direction,Wind SpeedMPH,Gust SpeedMPH,PrecipitationIn,Events,Conditions,WindDirDegrees,DateUTC
12:15 AM,50.0,39.2,66,29.85,10.0,West,17.3,21.9,N/A,,Scattered Clouds,280,2013-04-08 07:15:00
12:35 AM,48.2,39.2,71,29.83,10.0,West,12.7,19.6,N/A,,Partly Cloudy,280,2013-04-08 07:35:00
12:55 AM,48.2,41.0,76,29.81,10.0,West,16.1,-,N/A,,Scattered Clouds,280,2013-04-08 07:55:00
1:15 AM,50.0,41.0,71,29.80,10.0,West,20.7,-,N/A,,Mostly Cloudy,280,2013-04-08 08:15:00
1:35 AM,48.2,39.2,71,29.80,10.0,West,21.9,31.1,N/A,,Overcast,280,2013-04-08 08:35:00
1:55 AM,46.4,41.0,81,29.80,10.0,NW,26.5,31.1,N/A,,Overcast,310,2013-04-08 08:55:00
2:15 AM,46.4,37.4,71,29.79,10.0,WNW,27.6,41.4,N/A,,Overcast,300,2013-04-08 09:15:00
2:35 AM,44.6,37.4,76,29.78,10.0,WNW,25.3,36.8,N/A,,Overcast,300,2013-04-08 09:35:00
2:55 AM,42.8,35.6,76,29.76,10.0,NW,25.3,36.8,N/A,,Overcast,310,2013-04-08 09:55:00
3:15 AM,42.8,35.6,76,29.74,10.0,NW,28.8,35.7,N/A,,Overcast,310,2013-04-08 10:15:00
3:35 AM,41.0,35.6,81,29.73,10.0,NW,23.0,32.2,N/A,,Overcast,310,2013-04-08 10:35:00
3:55 AM,41.0,37.4,87,29.72,10.0,WNW,25.3,34.5,N/A,Rain,Light Rain,290,2013-04-08 10:55:00
4:15 AM,41.0,35.6,81,29.71,10.0,WNW,20.7,27.6,N/A,,Overcast,290,2013-04-08 11:15:00
4:35 AM,41.0,35.6,81,29.69,10.0,West,31.1,41.4,N/A,,Overcast,280,2013-04-08 11:35:00
4:55 AM,41.0,33.8,76,29.67,10.0,West,27.6,39.1,N/A,,Overcast,280,2013-04-08 11:55:00
5:15 AM,41.0,32.0,70,29.67,10.0,WNW,25.3,41.4,N/A,,Overcast,290,2013-04-08 12:15:00
5:35 AM,41.0,32.0,70,29.67,10.0,WNW,32.2,41.4,N/A,,Overcast,300,2013-04-08 12:35:00
5:55 AM,41.0,32.0,70,29.67,9.0,West,31.1,46.0,N/A,Rain,Light Rain,280,2013-04-08 12:55:00
6:15 AM,39.2,35.6,87,29.68,9.0,WNW,26.5,41.4,N/A,Rain,Light Rain,290,2013-04-08 13:15:00
6:35 AM,39.2,33.8,81,29.68,10.0,West,29.9,36.8,N/A,Rain,Light Rain,280,2013-04-08 13:35:00
6:55 AM,39.2,32.0,75,29.69,8.0,WNW,27.6,38.0,N/A,Rain,Light Rain,300,2013-04-08 13:55:00
7:15 AM,37.4,30.2,75,29.69,7.0,WNW,31.1,40.3,N/A,Rain,Light Rain,290,2013-04-08 14:15:00
7:35 AM,37.4,26.6,65,29.69,10.0,West,26.5,43.7,N/A,Rain,Light Rain,280,2013-04-08 14:35:00
7:55 AM,35.6,28.4,75,29.71,5.0,WNW,31.1,44.9,0.01,Rain,Light Rain,300,2013-04-08 14:55:00
8:15 AM,33.8,28.4,81,29.74,8.0,WNW,31.1,44.9,N/A,Rain,Light Rain,300,2013-04-08 15:15:00
8:35 AM,33.8,28.4,81,29.74,5.0,WNW,31.1,39.1,N/A,Rain,Light Rain,300,2013-04-08 15:35:00
8:55 AM,33.8,28.4,81,29.76,5.0,WNW,28.8,38.0,N/A,Rain,Light Rain,300,2013-04-08 15:55:00
9:15 AM,33.8,28.4,81,29.76,3.0,WNW,25.3,35.7,N/A,Rain,Light Rain,300,2013-04-08 16:15:00
9:35 AM,35.6,30.2,81,29.76,9.0,NW,21.9,29.9,0.01,Rain,Light Rain,320,2013-04-08 16:35:00
9:55 AM,35.6,32.0,87,29.76,1.0,NW,19.6,27.6,0.03,Rain,Light Rain,320,2013-04-08 16:55:00
10:15 AM,35.6,33.8,93,29.76,2.5,NW,24.2,31.1,N/A,Rain,Light Rain,310,2013-04-08 17:15:00
10:35 AM,35.6,35.6,100,29.75,1.5,NW,23.0,32.2,0.02,Rain,Light Rain,310,2013-04-08 17:35:00
10:55 AM,37.4,35.6,93,29.75,5.0,NW,25.3,32.2,0.03,Rain,Light Rain,320,2013-04-08 17:55:00
11:15 AM,35.6,35.6,100,29.75,2.0,NW,24.2,31.1,N/A,Rain,Light Rain,320,2013-04-08 18:15:00
11:35 AM,35.6,35.6,100,29.75,1.0,NW,26.5,31.1,0.06,Rain,Rain,320,2013-04-08 18:35:00
11:55 AM,35.6,35.6,100,29.76,1.0,NW,23.0,28.8,0.13,Rain,Light Rain,320,2013-04-08 18:55:00
12:15 PM,37.4,37.4,100,29.75,2.0,WNW,26.5,29.9,0.01,Rain,Light Rain,300,2013-04-08 19:15:00
12:35 PM,39.2,39.2,100,29.74,9.0,NW,28.8,38.0,0.01,Rain,Light Rain,310,2013-04-08 19:35:00
12:55 PM,39.2,37.4,93,29.75,7.0,NW,27.6,38.0,0.01,Rain,Light Rain,310,2013-04-08 19:55:00
1:15 PM,37.4,35.6,93,29.76,2.5,NW,28.8,36.8,N/A,Rain,Light Rain,310,2013-04-08 20:15:00
1:35 PM,35.6,35.6,100,29.77,0.5,WNW,23.0,31.1,0.10,Rain,Light Rain,300,2013-04-08 20:35:00
1:55 PM,35.6,35.6,100,29.77,0.2,NW,18.4,26.5,0.13,Rain,Light Rain,310,2013-04-08 20:55:00
2:15 PM,35.6,35.6,100,29.78,0.2,WNW,19.6,26.5,N/A,Rain,Light Rain,300,2013-04-08 21:15:00
2:35 PM,37.4,37.4,100,29.78,3.0,NW,23.0,29.9,0.02,Rain,Light Rain,310,2013-04-08 21:35:00
2:55 PM,37.4,37.4,100,29.77,5.0,WNW,28.8,38.0,0.02,Rain,Light Rain,300,2013-04-08 21:55:00
3:15 PM,37.4,37.4,100,29.78,10.0,NW,24.2,31.1,N/A,,Overcast,310,2013-04-08 22:15:00
3:55 PM,39.2,37.4,93,29.77,10.0,WNW,25.3,33.4,N/A,,Overcast,300,2013-04-08 22:55:00
4:15 PM,39.2,35.6,87,29.78,10.0,WNW,19.6,29.9,N/A,,Overcast,300,2013-04-08 23:15:00
4:35 PM,39.2,35.6,87,29.78,10.0,WNW,24.2,31.1,N/A,,Overcast,300,2013-04-08 23:35:00
4:55 PM,39.2,35.6,87,29.79,10.0,NW,21.9,32.2,N/A,,Mostly Cloudy,310,2013-04-08 23:55:00
5:15 PM,39.2,35.6,87,29.79,10.0,WNW,24.2,29.9,N/A,,Overcast,300,2013-04-09 00:15:00
5:35 PM,39.2,35.6,87,29.79,10.0,WNW,20.7,28.8,N/A,,Overcast,290,2013-04-09 00:35:00
5:55 PM,39.2,35.6,87,29.79,10.0,NW,18.4,29.9,N/A,,Overcast,310,2013-04-09 00:55:00
6:15 PM,39.2,35.6,87,29.80,10.0,WNW,17.3,25.3,N/A,,Mostly Cloudy,300,2013-04-09 01:15:00
6:35 PM,39.2,35.6,87,29.81,10.0,NW,16.1,25.3,N/A,,Overcast,310,2013-04-09 01:35:00
6:55 PM,39.2,33.8,81,29.81,10.0,NW,16.1,23.0,N/A,,Overcast,310,2013-04-09 01:55:00
7:15 PM,39.2,33.8,81,29.82,10.0,WNW,17.3,23.0,N/A,,Overcast,300,2013-04-09 02:15:00
7:35 PM,39.2,33.8,81,29.82,10.0,WNW,20.7,26.5,N/A,,Mostly Cloudy,300,2013-04-09 02:35:00
7:55 PM,39.2,33.8,81,29.82,10.0,WNW,15.0,27.6,N/A,,Overcast,300,2013-04-09 02:55:00
8:15 PM,39.2,35.6,87,29.82,10.0,WNW,16.1,20.7,N/A,,Overcast,300,2013-04-09 03:15:00
8:35 PM,41.0,35.6,81,29.83,10.0,WNW,17.3,20.7,N/A,,Overcast,300,2013-04-09 03:35:00
8:55 PM,41.0,35.6,81,29.84,10.0,NW,13.8,24.2,N/A,,Overcast,310,2013-04-09 03:55:00
9:15 PM,41.0,35.6,81,29.85,10.0,NW,13.8,-,N/A,,Overcast,310,2013-04-09 04:15:00
9:35 PM,41.0,35.6,81,29.85,10.0,NW,13.8,23.0,N/A,,Overcast,310,2013-04-09 04:35:00
9:55 PM,39.2,35.6,87,29.86,10.0,NW,12.7,17.3,N/A,,Overcast,310,2013-04-09 04:55:00
10:15 PM,39.2,35.6,87,29.87,10.0,NNW,11.5,17.3,N/A,,Overcast,330,2013-04-09 05:15:00
10:35 PM,41.0,35.6,81,29.87,10.0,NW,10.4,-,N/A,,Overcast,320,2013-04-09 05:35:00
10:55 PM,41.0,33.8,76,29.87,10.0,NW,11.5,-,N/A,,Overcast,310,2013-04-09 05:55:00
11:15 PM,41.0,33.8,76,29.88,10.0,WNW,11.5,-,N/A,,Overcast,300,2013-04-09 06:15:00
11:35 PM,39.2,33.8,81,29.88,10.0,WNW,10.4,18.4,N/A,,Overcast,290,2013-04-09 06:35:00
11:55 PM,39.2,33.8,81,29.88,10.0,NW,10.4,-,N/A,,Overcast,310,2013-04-09 06:55:00